Flag for U.S.A. Weather past 2 weeks in Huntington Beach, California, U.S.A.

Now
70 °F

Fog.


Feels Like: 70 °F
Forecast: 68 / 79 °F
Wind: 3 mph from South

Location: John Wayne Airport-Orange County Airport

Current Time: Jul 26, 2014 at 8:20:47 AM

Latest Report: Jul 26, 2014 at 8:00 AM


Visibility: 3 mi

Pressure: 29.97 "Hg

Humidity: 83%

Dew point: 64 °F

Location of Huntington BeachLocation

Historic Weather in Huntington Beach — Graph

°F

Huntington Beach temperature yesterday

Maximum temperature yesterday: 82 °F (at 1:53 PM)
Minimum temperature yesterday: 73 °F (at 2:53 AM)
Average temperature yesterday: 76 °F

Past Weeks' High & Low Weather Summary

 TemperatureHumidityPressure
High88 °F (Jul 24, 1:53 PM)87% (Jul 26, 6:53 AM)30.06 "Hg (Jul 26, 6:53 AM)
Low68 °F (Jul 12, 4:53 AM)35% (Jul 23, 2:53 PM)29.72 "Hg (Jul 24, 5:53 PM)
Average74 °F65%29.96 "Hg
* Reported Jul 11 6:53 AM — Jul 26 6:53 AM, Huntington Beach, Weather by CustomWeather, © 2014

Note: Actual official high and low records may vary slightly from our data, if they occured in-between our weather recording intervals... More about our weather records

Advertising

Huntington Beach weather history for previous 24 hours

 ConditionsComfort  
Time TempWeatherWind HumidityBarometerVisibility
6:53 AM
Jul 26
69 °FFog.No wind87%29.93 "Hg1 mi
5:53 AM70 °FPassing clouds.6 mph84%29.92 "Hg7 mi
4:53 AM71 °FClear.5 mph78%29.90 "Hg8 mi
3:53 AM72 °FClear.No wind76%29.90 "Hg8 mi
2:53 AM71 °FClear.No wind78%29.90 "Hg8 mi
1:53 AM72 °FClear.3 mph76%29.91 "Hg8 mi
12:53 AM72 °FClear.3 mph78%29.92 "Hg8 mi
11:53 PM
Jul 25
73 °FClear.3 mph74%29.91 "Hg9 mi
10:53 PM73 °FPassing clouds.6 mph74%29.91 "Hg8 mi
9:53 PM73 °FPassing clouds.6 mph74%29.90 "Hg8 mi
8:53 PM73 °FScattered clouds.8 mph74%29.90 "Hg8 mi
7:53 PM74 °FScattered clouds.12 mph71%29.88 "Hg8 mi
6:53 PM76 °FBroken clouds.15 mph67%29.86 "Hg9 mi
5:53 PM77 °FBroken clouds.9 mph66%29.85 "Hg8 mi
4:53 PM79 °FBroken clouds.12 mph60%29.86 "Hg10 mi
3:53 PM81 °FBroken clouds.12 mph56%29.87 "Hg10 mi
2:53 PM82 °FBroken clouds.12 mph56%29.89 "Hg10 mi
1:53 PM82 °FBroken clouds.17 mph56%29.90 "Hg10 mi
12:53 PM81 °FBroken clouds.12 mph60%29.89 "Hg10 mi
11:53 AM80 °FBroken clouds.9 mph60%29.90 "Hg10 mi
10:53 AM80 °FScattered clouds.9 mph60%29.89 "Hg10 mi
9:53 AM80 °FScattered clouds.5 mph58%29.89 "Hg10 mi
8:53 AM77 °FScattered clouds.No wind62%29.88 "Hg10 mi
Weather by CustomWeather, © 2014

See weather overviewHow to use our weather pages